COSMOS 1275 DEB, 42205

Orbit data source: Space-Track

COSMOS 1275 DEB, 42205 is space debris in LEO originally from a launch on Thu, 04 Jun 1981 UTC launched from the Plesetsk Missile And Space Complex (PKMTR). Debris objects in space refer to the collection of defunct objects orbiting the Earth. Examples of debris include non-operational satellites, rocket bodies, and fragments generated from explosions, collisions, or faulty payload assembly.

Loading next visibility...
Identifier
42205, 1981-053TV
Orbit
LEO
Country
Flag of CISCIS
Related business
Manufacturer
Unknown
Mission
Spacecraft
Bus & Motor
Unknown
Mass
Unknown
Launch date (UTC)
1981-06-04 (44 years ago)
Launch vehicle
Unknown
Launch site
Plesetsk Missile And Space Complex (PKMTR)
Object type
Payload
Rocket body
Debris
Shape & HBR
Unknown shape, 0.1 m
Radar Cross Section
Small (<0.1 m²)

Expand to show TLE details & history
Last TLE update: 2 days ago

TLE from 2 days ago
0 COSMOS 1275 DEB
1 42205U 81053TV  25284.85269403  .00001158  00000-0  11347-2 0  9991
2 42205  83.0354 135.1052 0114443 317.6964  41.5407 13.75454832594582
Epoch: 2025-10-11T20:27Z
TLE epoch observation values (Epoch: 2025-10-11T20:27:52.764Z)
Latitude
0.00002°
Longitude
167.45712°
Altitude
920.343 km
Speed
7.423 km/s
True Right ascension
09h 00m 25s
True Declination
0° 00' 00"
Sunlit
Object was in daylight at epoch
Visualization orbit readout
Latitude
Unknown
Longitude
Unknown
Altitude
Unknown
Speed
Unknown
Apparent Right ascension
Unknown
Apparent Declination
Unknown
Sunlit
N/A
Visualization observer readout
Local Sidereal Time
21:08:51
Azimuth
Unknown
Elevation
Unknown
Doppler factor
Unknown
Orbital elements
Apogee altitude
1,061.373 km
Perigee altitude
893.02 km
Semi-major axis
7,355.333 km
Eccentricity
0.01144
Inclination
83.0354°
RAAN
135.1052°
Arg. of periapsis
317.6964°
True anomaly
42.41974°
Mean anomaly
41.5407°
Eccentric anomaly
41.97928°
Mean motion
3.44064 °/min
Orbital period
104.63 mins
BSTAR
0.0011347
Loading maneuver chart data...
Computing Atmospheric mass density...
Loading historical data...
Loading historical data...
Loading historical data...
Loading historical data...
Loading historical data...
Loading historical data...
Loading historical data...

Documentation

Showing up to 5 results
|